sat.trackr.live / text

‹ back to catalog

STARLINK-2608

NORAD 48365 · 2021-038N

PAYLOAD ACTIVE UNKNOWN

§ Identity

Operator
Country
US
Launch date
2021-05-04
Launch site
AFETR
Launch vehicle
Mass (kg)
RCS (m²)

Purposes: comms

External: N2YO · Heavens-Above · Gunter

§ Orbital elements

Epoch: 2026-09-19T06:14:54.509568Z

Period
94.01 min
Inclination
53.1594°
Eccentricity
0.0001463
Mean motion
15.31698360 rev/d
Perigee alt
469.7 km
Apogee alt
471.7 km
Semi-major
6,848.9 km
B*
8.9366e-5
RAAN
167.0126°
Arg perigee
83.9894°
Mean anomaly
276.1275°
Rev number
29,689

§ Raw data

STARLINK-26081 48365U 21038N   26262.26035312  .00002409  00000+0  89366-4 0  99902 48365  53.1594 167.0126 0001463  83.9894 276.1275 15.31698360296899

JSON: /api/v1/satellites/48365 · /tle

For live sub-satellite position, see the globe view (requires WebGL).

§ Visibility from observer

Set your observer location to see the next 7 days of passes ≥ 10°. The values pass through the URL so the page stays shareable.

No JS? Fill the form by hand. The geolocation button needs JavaScript.